Temperature
16 16 16 16 16 16 16 16 16 16 16 17 17 17 17 16 16 16 16 16 16 16 15 15 15 15 15 15 15 14 14 14 14 14 14 14 14 13
15 15 16 16 16 16 16 16 16 16 16 16 16 16 16 16 16 16 16 15 15 15 15 15 15 15 14 14 14 14 14 14 14 14 13 13 13 13
15 15 15 15 15 15 15 15 15 15 15 16 16 16 15 15 15 15 15 15 15 15 15 14 14 14 14 14 14 14 14 14 13 13 13 13 13 13
15 15 15 15 15 15 15 15 15 15 15 15 15 15 15 15 15 15 14 14 14 14 14 14 14 14 14 14 13 13 13 13 13 13 13 13 12 12
14 14 15 14 14 14 14 14 15 15 15 15 15 14 14 14 14 14 14 14 14 14 14 13 13 13 13 13 13 13 13 13 13 12 12 12 12 12
14 14 14 14 14 14 14 14 14 14 14 14 14 14 14 14 14 14 13 13 13 13 13 13 13 13 13 12 12 12 12 12 12 12 12 12 12 11
13 14 14 14 14 14 14 14 14 14 14 14 14 14 13 13 13 13 13 13 13 12 12 12 12 12 12 12 12 12 12 12 12 12 11 11 11 11
13 13 13 13 13 13 13 14 14 14 14 14 14 14 13 13 13 13 13 13 12 12 12 12 12 12 12 11 11 11 11 11 11 11 11 11 10 10
12 13 13 13 13 13 13 13 13 13 14 14 14 14 14 13 13 13 13 13 13 12 12 11 11 11 11 11 11 11 11 11 11 10 10 10 10 10
12 12 12 13 13 13 13 13 13 13 13 13 14 14 14 13 13 13 13 12 12 12 11 11 11 11 10 10 10 10 10 10 10 10 10 10 9 9
12 12 12 12 12 13 13 13 13 13 13 13 13 13 13 13 13 13 12 12 12 11 11 11 11 10 10 10 10 10 9 9 9 9 9 9 9 9
11 12 12 12 12 13 13 13 13 13 13 13 13 13 13 13 13 13 13 13 12 11 11 11 11 10 10 9 9 9 9 9 9 9 9 9 9 8
11 11 12 12 12 12 13 13 13 13 13 13 13 13 13 13 12 12 12 12 12 12 12 11 11 11 10 10 9 9 9 9 8 8 8 8 8 8
11 11 12 12 12 12 12 13 13 13 13 13 12 12 12 12 12 12 12 12 12 12 12 11 11 11 11 10 9 9 9 8 8 8 8 8 8 8
11 11 11 12 12 12 12 12 13 13 13 12 12 12 12 12 12 12 12 11 11 11 11 11 11 11 10 10 10 9 9 8 8 8 8 7 7 7
11 11 11 12 12 12 12 12 12 12 12 12 12 12 12 12 12 11 11 11 11 11 11 10 10 10 10 10 10 9 9 8 8 8 7 7 7 7
11 11 11 12 12 12 12 12 12 12 12 12 12 12 11 11 11 11 11 11 11 11 10 10 10 10 10 9 9 9 9 8 8 8 7 7 7 7
11 11 11 11 12 12 12 12 12 12 12 12 11 11 11 11 11 11 10 10 10 10 10 10 10 9 9 9 9 9 8 8 8 8 7 7 7 7
11 11 11 11 11 11 12 12 12 11 11 11 11 11 11 11 10 10 10 10 10 10 9 9 9 9 9 9 9 8 8 8 8 8 8 8 8 8
11 11 11 11 11 11 11 11 11 11 11 11 11 11 11 10 10 10 10 10 9 9 9 9 9 8 9 9 8 8 8 8 8 8 8 8 8 8
11 11 11 11 11 11 11 11 11 11 11 11 11 10 10 10 10 10 10 9 9 9 9 9 8 8 8 8 8 8 8 8 8 8 8 8 8 8
11 11 11 11 11 11 11 11 11 11 11 11 10 10 10 10 10 10 9 9 9 9 9 8 8 8 8 8 8 8 8 8 8 8 8 8 8 8
11 11 11 11 11 11 11 10 10 10 10 10 10 10 10 10 9 9 9 9 9 9 8 8 8 8 8 8 8 7 7 7 7 8 7 7 7 7
Wind_Speed
8 9 7 6 6 5 5 5 6 5 5 4 3 3 5 8 11 13 13 17 17 15 13 13 12 11 9 7 6 5 3 3 3 2 2 2 2 3
6 7 7 6 6 6 5 5 5 5 5 4 3 3 4 6 9 10 10 13 14 13 12 11 11 10 9 7 6 5 4 4 2 1 0 1 2 2
5 7 7 7 6 6 5 5 5 5 4 3 2 2 3 6 6 7 8 8 9 10 10 10 10 10 9 8 6 6 5 4 3 2 1 1 2 2
5 6 7 6 7 6 6 6 6 5 5 5 3 2 3 5 6 6 7 8 9 10 10 10 11 10 9 8 7 6 6 5 4 4 4 4 4 5
4 6 7 7 7 6 7 7 5 5 4 5 4 2 3 4 6 6 7 7 9 11 11 12 12 11 10 9 8 7 7 7 7 6 6 7 7 8
2 4 5 7 7 8 7 7 7 6 5 6 5 4 4 4 6 7 7 5 6 8 10 11 12 12 10 9 9 9 9 8 8 8 8 8 8 8
1 2 4 6 9 8 7 8 8 6 6 6 6 5 5 6 6 5 7 7 6 5 6 7 8 9 9 9 10 9 9 9 9 9 9 9 9 9
2 3 3 5 7 8 9 10 10 8 8 6 5 7 6 6 6 8 9 7 4 4 5 5 5 5 7 8 9 10 10 10 10 9 9 9 10 10
3 3 3 4 5 5 7 8 7 8 9 7 8 7 7 7 9 9 8 5 5 7 5 4 4 5 6 7 9 9 9 9 9 9 9 9 10 11
4 4 4 5 5 6 7 6 5 4 5 6 7 6 6 8 9 8 9 8 7 5 4 4 3 3 4 6 7 8 9 9 9 8 9 9 10 10
5 5 5 5 7 9 8 8 7 5 7 9 9 9 12 14 13 10 9 10 6 3 2 4 4 3 2 2 5 7 8 9 9 8 8 8 9 9
5 5 7 7 8 8 7 8 8 6 7 8 9 9 9 11 13 10 10 10 6 3 3 4 4 4 3 1 1 3 5 6 7 8 8 7 7 7
4 4 4 7 8 8 7 6 8 8 8 9 8 7 7 6 5 6 6 8 6 3 5 5 4 3 4 3 1 1 2 1 3 4 6 6 6 6
4 3 4 7 8 7 7 9 12 10 7 7 7 6 6 5 5 6 9 8 6 5 9 7 4 5 5 4 3 1 1 2 2 2 3 4 5 5
4 6 7 8 8 7 8 11 9 7 7 7 7 5 4 5 6 6 8 11 12 11 7 4 5 5 4 4 4 3 2 2 3 3 2 2 2 2
5 7 9 10 8 8 8 7 6 6 7 7 6 5 4 5 5 5 5 5 6 5 10 10 8 7 4 3 4 4 3 3 2 2 2 2 3 5
4 5 5 5 5 5 5 5 5 5 6 4 5 5 5 5 4 3 4 4 4 3 3 4 11 12 7 5 4 3 3 2 2 2 2 1 3 6
6 5 4 4 5 4 5 4 4 5 4 5 5 5 5 5 4 3 3 4 5 4 3 2 3 4 4 5 3 4 3 2 2 2 2 2 3 5
5 4 3 3 3 4 4 4 3 3 4 5 5 5 5 5 4 4 4 4 4 3 2 2 2 3 3 1 2 1 4 3 2 2 2 3 4 4
2 3 3 3 3 3 3 3 3 4 4 4 5 5 5 4 4 5 5 5 4 3 3 1 2 3 5 5 3 2 3 4 4 3 2 2 2 4
2 2 3 3 3 3 3 3 4 4 4 4 4 5 5 5 5 5 5 7 5 4 4 4 3 4 3 4 2 1 2 5 6 4 4 2 1 2
3 3 3 3 4 4 4 4 4 4 4 4 4 4 4 5 6 6 6 5 4 4 5 3 3 3 2 3 3 3 2 2 4 7 8 8 5 4
5 5 4 4 4 4 4 4 5 4 4 4 4 4 5 4 4 5 5 5 5 4 4 4 3 2 2 3 4 3 3 2 2 2 5 12 17 18
Wind_Direction
205 199 195 196 191 185 172 165 160 177 205 198 189 196 177 174 186 189 192 198 202 204 204 200 193 189 186 183 183 179 182 170 170 188 228 272 296 305
201 197 197 195 185 183 179 173 168 167 188 194 190 177 162 160 166 171 179 185 193 195 195 191 186 178 172 167 160 150 145 141 135 137 160 317 315 325
191 192 197 189 184 183 177 174 175 164 169 175 167 145 137 137 134 138 141 151 169 176 177 173 166 157 151 144 140 133 124 117 103 84 61 34 18 8
189 185 187 184 182 180 179 180 177 165 160 160 157 144 135 144 136 133 128 125 125 135 142 141 136 132 129 127 126 123 116 107 95 84 72 61 54 51
188 185 180 176 180 176 178 177 173 167 148 148 152 141 124 131 124 119 116 110 117 119 119 119 118 116 114 116 117 115 109 101 91 83 77 74 70 63
171 179 177 179 182 178 175 171 165 158 151 148 142 134 128 130 132 132 124 112 112 110 106 105 105 104 106 111 113 109 105 100 93 88 85 79 71 67
97 141 163 175 180 176 170 167 162 160 159 154 146 139 144 148 149 142 131 119 99 104 101 92 90 85 86 95 102 105 104 102 98 93 89 86 81 78
91 99 125 144 164 164 161 165 166 167 165 159 156 156 158 153 141 142 138 138 127 124 108 91 82 82 75 88 100 104 103 100 97 96 94 93 88 84
86 102 113 118 123 129 142 147 158 168 167 160 159 163 161 160 150 149 151 139 128 143 119 98 80 78 66 82 96 100 100 99 98 100 102 98 93 87
75 89 103 107 115 118 117 111 107 120 155 157 159 163 159 155 152 146 137 111 100 112 110 111 105 85 65 64 84 97 99 99 100 102 105 104 100 92
71 74 95 105 117 115 113 108 96 87 94 112 125 131 139 142 139 131 132 134 130 134 106 113 128 108 79 43 64 89 97 97 97 99 104 111 107 95
69 63 72 94 109 109 113 115 109 102 102 93 92 97 110 128 138 145 148 146 136 143 151 120 139 138 126 90 57 81 92 93 94 92 98 111 123 108
79 63 65 88 97 98 100 109 117 113 104 100 95 92 92 95 101 116 133 146 141 146 159 133 140 143 134 142 162 188 171 128 97 84 92 107 121 125
80 65 70 86 95 99 100 109 111 104 101 100 99 95 97 96 95 97 101 93 89 129 155 146 140 153 139 139 166 165 167 191 169 142 116 110 108 122
73 75 80 84 85 88 104 109 106 105 107 106 107 101 95 103 100 92 83 82 71 72 98 132 135 136 133 147 156 156 165 204 189 177 181 177 179 161
62 69 73 75 78 83 90 95 98 112 118 118 113 103 94 93 99 105 104 94 80 47 40 63 114 126 124 127 139 152 164 178 183 178 181 213 231 221
68 67 67 72 75 75 79 85 93 104 107 109 114 115 111 107 101 95 98 90 98 106 60 39 67 79 84 120 125 143 156 173 183 169 158 207 252 234
81 81 79 82 91 97 102 96 94 109 118 122 124 126 128 126 119 103 98 111 120 127 128 123 94 68 57 40 68 148 159 181 184 168 161 183 256 253
86 92 97 101 102 107 113 113 114 120 127 131 135 136 133 131 130 131 128 123 126 132 138 136 121 116 124 194 297 162 169 179 164 172 193 196 227 255
106 124 127 127 123 124 126 123 119 119 124 134 138 142 143 140 141 147 151 150 145 141 143 150 166 167 175 187 200 220 198 175 173 190 213 227 259 292
149 148 151 150 147 144 140 135 134 138 141 139 142 146 148 143 148 156 159 158 147 152 172 198 202 151 121 101 104 270 262 218 205 189 184 184 260 307
175 169 167 162 156 153 149 142 136 138 142 142 148 152 154 155 159 162 163 163 168 172 180 174 140 127 134 160 189 218 252 264 240 234 228 216 185 207
188 182 177 171 166 160 158 159 158 163 165 161 159 160 157 156 160 162 166 165 161 163 157 158 155 158 175 180 189 206 223 232 253 280 269 250 244 250
Height
1496 1499 1502 1505 1509 1513 1516 1520 1524 1526 1529 1532 1534 1537 1539 1542 1544 1547 1549 1551 1553 1555 1557 1558 1560 1561 1562 1563 1563 1564 1564 1564 1563 1563 1562 1562 1561 1560
1491 1493 1496 1500 1503 1507 1510 1514 1518 1521 1524 1527 1530 1533 1535 1538 1541 1543 1546 1548 1550 1552 1553 1555 1557 1558 1559 1560 1561 1562 1562 1562 1561 1561 1560 1559 1559 1558
1486 1488 1491 1494 1498 1501 1505 1508 1512 1516 1519 1523 1526 1529 1532 1534 1537 1540 1542 1545 1546 1548 1550 1552 1554 1555 1556 1558 1559 1559 1559 1559 1559 1558 1558 1557 1556 1555
1481 1484 1487 1490 1493 1496 1499 1503 1507 1511 1515 1518 1521 1525 1528 1531 1534 1537 1539 1542 1544 1545 1547 1549 1551 1552 1553 1555 1556 1557 1557 1557 1556 1556 1556 1555 1554 1553
1478 1480 1482 1485 1488 1491 1495 1498 1502 1506 1510 1514 1517 1521 1525 1528 1531 1534 1537 1539 1541 1543 1544 1546 1548 1550 1551 1552 1553 1554 1555 1555 1554 1554 1553 1553 1552 1551
1476 1477 1480 1482 1485 1488 1491 1495 1498 1502 1506 1510 1514 1518 1521 1525 1528 1531 1534 1537 1539 1541 1543 1544 1546 1548 1549 1550 1551 1552 1553 1553 1552 1552 1551 1551 1550 1550
1474 1475 1478 1480 1483 1485 1488 1491 1495 1499 1503 1506 1510 1514 1518 1522 1525 1528 1532 1535 1537 1540 1541 1543 1545 1546 1548 1549 1550 1551 1551 1551 1551 1551 1550 1549 1549 1548
1473 1475 1477 1479 1482 1484 1487 1490 1493 1496 1500 1503 1507 1511 1515 1519 1523 1526 1529 1532 1536 1539 1541 1543 1545 1546 1547 1548 1549 1550 1550 1550 1549 1549 1549 1548 1548 1547
1474 1475 1477 1479 1481 1484 1487 1490 1493 1496 1499 1502 1506 1509 1513 1516 1520 1524 1528 1531 1534 1537 1540 1542 1544 1546 1547 1548 1548 1549 1549 1549 1548 1548 1548 1548 1547 1546
1475 1476 1477 1479 1481 1484 1486 1489 1492 1495 1499 1502 1505 1509 1512 1516 1520 1523 1527 1530 1534 1537 1539 1541 1543 1545 1547 1548 1548 1549 1548 1548 1548 1548 1548 1547 1547 1546
1476 1478 1479 1481 1483 1485 1488 1490 1493 1496 1499 1502 1505 1508 1512 1515 1519 1523 1526 1529 1532 1536 1538 1540 1543 1545 1547 1547 1548 1548 1548 1547 1547 1547 1547 1547 1546 1546
1478 1480 1481 1483 1485 1487 1489 1492 1494 1497 1499 1502 1505 1509 1512 1516 1519 1522 1525 1528 1531 1535 1537 1540 1542 1544 1546 1547 1547 1548 1548 1547 1547 1547 1547 1547 1546 1545
1480 1482 1483 1485 1487 1489 1492 1494 1496 1499 1501 1504 1507 1510 1513 1516 1519 1523 1526 1529 1531 1533 1536 1538 1541 1543 1544 1545 1546 1547 1547 1547 1547 1547 1547 1546 1546 1545
1483 1484 1486 1488 1490 1493 1495 1497 1499 1502 1504 1506 1509 1512 1515 1517 1520 1523 1526 1529 1532 1534 1536 1538 1539 1541 1543 1544 1545 1546 1546 1546 1547 1546 1546 1546 1545 1545
1486 1487 1489 1491 1494 1496 1498 1500 1502 1504 1507 1509 1511 1514 1517 1519 1521 1524 1526 1529 1531 1533 1535 1537 1539 1540 1542 1543 1544 1544 1545 1545 1545 1545 1545 1545 1545 1544
1489 1491 1493 1495 1497 1499 1501 1503 1505 1507 1510 1511 1514 1516 1518 1520 1522 1525 1527 1529 1531 1532 1534 1536 1538 1539 1541 1542 1542 1543 1543 1544 1544 1544 1544 1544 1544 1543
1493 1494 1496 1498 1500 1502 1503 1505 1508 1510 1512 1513 1515 1517 1519 1521 1523 1526 1527 1529 1530 1532 1533 1535 1536 1538 1539 1540 1541 1541 1542 1542 1542 1542 1542 1542 1542 1542
1496 1497 1499 1500 1502 1504 1505 1507 1509 1511 1513 1515 1517 1518 1520 1522 1524 1526 1528 1529 1530 1532 1533 1534 1535 1536 1538 1539 1540 1540 1540 1541 1541 1541 1541 1540 1540 1540
1499 1499 1501 1502 1504 1505 1507 1509 1510 1512 1514 1516 1517 1519 1521 1522 1524 1525 1527 1529 1530 1531 1532 1533 1534 1535 1536 1537 1538 1539 1539 1539 1539 1539 1538 1538 1538 1538
1500 1501 1502 1503 1505 1506 1508 1509 1511 1512 1514 1516 1517 1519 1520 1522 1523 1525 1526 1528 1529 1530 1531 1532 1533 1534 1535 1536 1536 1537 1537 1537 1536 1536 1536 1536 1535 1535
1500 1501 1502 1504 1505 1506 1508 1509 1510 1512 1513 1515 1517 1518 1520 1521 1522 1524 1525 1526 1528 1529 1530 1531 1532 1533 1533 1534 1534 1534 1535 1534 1534 1534 1534 1533 1533 1532
1500 1501 1502 1503 1504 1505 1507 1508 1510 1511 1512 1514 1515 1517 1518 1520 1521 1522 1523 1524 1526 1527 1528 1529 1530 1530 1531 1531 1531 1532 1532 1532 1532 1531 1531 1531 1530 1529
1499 1500 1501 1502 1503 1504 1505 1506 1508 1509 1510 1512 1513 1515 1516 1517 1518 1520 1521 1522 1523 1525 1526 1527 1527 1528 1528 1528 1528 1529 1529 1529 1529 1529 1529 1528 1527 1527